#timestamp,LO_Frequency,Temp,Hum 
1437732015.6,286078800.7,29.8,39.1 
1437732035.7,286078802.5,29.8,39.1 
1437732055.9,286078796.8,29.8,38.1 
1437732076.0,286078800.5,29.8,38.6 
1437732095.2,286078798.4,29.1,39.1 
1437732115.3,286078802.6,29.1,38.6 
1437732135.5,286078800.0,29.8,39.1 
1437732155.6,286078800.1,29.8,39.1 
1437732175.7,286078800.5,29.8,38.6 
1437732195.8,286078799.1,29.8,38.6 
1437732216.0,286078799.0,29.8,38.6 
1437732236.1,286078798.5,29.8,38.1 
1437732255.3,286078803.0,29.8,38.1 
1437732275.4,286078804.2,29.1,37.6 
1437732295.6,286078795.9,29.1,38.6 
1437732315.7,286078800.9,29.1,37.2 
1437732335.8,286078801.7,29.1,37.6 
1437732355.9,286078801.4,29.1,38.1 
1437732376.1,286078798.2,29.1,37.6 
1437732395.3,286078797.7,29.1,38.1 
1437732415.4,286078799.1,29.1,38.6 
1437732435.5,286078802.9,29.8,38.1 
1437732455.7,286078800.2,29.8,37.6 
1437732475.8,286078796.9,29.8,37.6 
1437732495.9,286078802.7,29.8,37.6 
1437732516.0,286078797.2,29.8,37.6 
1437732535.3,286078798.7,29.8,38.1 
1437732555.4,286078798.9,29.8,38.6 
1437732575.5,286078799.0,29.8,38.6 
1437732595.6,286078799.1,29.8,38.1 
1437732615.8,286078800.8,29.8,37.6 
1437732635.9,286078800.1,29.8,38.1 
1437732656.0,286078799.1,29.8,37.6 
1437732675.2,286078800.2,29.8,37.2 
1437732695.3,286078799.6,29.8,37.6 
1437732715.5,286078798.0,29.8,37.2 
1437732735.6,286078799.2,29.8,37.2 
1437732755.7,286078800.7,29.8,37.2 
1437732775.8,286078800.5,29.8,37.2 
1437732796.0,286078799.1,29.8,37.2 
1437732815.2,286078800.6,29.8,37.2 
1437732835.3,286078799.0,29.8,37.2 
1437732855.5,286078804.6,29.8,37.2 
1437732875.6,286078801.3,29.8,36.7 
1437732895.7,286078794.0,29.8,37.2 
1437732915.8,286078798.6,29.8,36.7 
1437732936.0,286078802.2,29.8,36.7 
1437732956.1,286078801.2,29.8,36.7 
1437732975.3,286078801.4,29.8,37.6 
1437732995.4,286078795.8,29.8,37.2 
1437733015.6,286078802.7,29.8,37.2 
1437733035.7,286078797.8,29.8,37.2 
1437733055.8,286078800.6,29.8,36.7 
1437733075.9,286078800.3,29.8,37.2 
1437733096.1,286078797.8,29.8,35.7 
1437733115.3,286078800.0,29.8,35.7 
1437733135.4,286078803.1,29.8,36.7 
1437733155.5,286078799.0,29.8,37.6 
1437733175.7,286078799.3,29.8,37.6 
1437733195.8,286078800.4,29.1,35.2 
1437733215.9,286078801.6,29.1,35.7 
1437733236.0,286078804.4,29.8,36.2 
1437733255.3,286078799.0,29.8,36.2 
1437733275.4,286078799.9,29.8,36.7 
1437733295.5,286078798.0,29.8,36.2 
1437733315.7,286078801.8,29.8,36.2 
1437733335.8,286078796.8,29.8,36.2 
1437733355.9,286078801.1,29.8,35.7 
1437733376.1,286078797.8,29.8,35.7 
1437733395.3,286078802.9,29.8,36.2 
1437733415.4,286078799.6,29.8,36.2 
1437733435.5,286078800.4,29.8,36.2 
1437733455.7,286078799.3,29.8,36.7 
1437733475.8,286078801.1,29.8,36.7 
1437733495.9,286078798.2,29.8,36.2 
1437733516.1,286078799.4,29.8,36.2 
1437733535.3,286078797.2,29.8,36.2 
1437733555.4,286078801.7,29.8,35.7 
1437733575.5,286078800.8,29.8,35.7 
1437733595.6,286078796.9,29.8,36.2 
1437733615.8,286078799.3,29.8,36.2 
1437733635.9,286078798.9,29.8,36.2 
1437733656.0,286078802.5,29.8,36.7 
1437733675.2,286078799.6,29.8,36.7 
1437733695.4,286078797.0,29.8,36.2 
1437733715.5,286078802.1,29.8,36.2 
1437733735.6,286078802.7,29.8,36.2 
1437733755.7,286078798.1,29.8,36.7 
1437733775.9,286078801.0,29.8,36.7 
1437733796.0,286078800.4,29.8,36.7 
1437733815.2,286078802.7,29.8,36.7 
1437733835.4,286078797.6,29.8,36.7 
1437733855.5,286078799.0,29.8,36.7 
1437733875.6,286078801.3,29.8,36.7 
1437733895.7,286078798.6,29.8,36.7 
1437733915.9,286078803.1,29.8,36.7 
1437733936.0,286078796.8,29.8,36.7 
1437733955.2,286078801.4,29.8,36.2 
1437733975.3,286078799.1,29.8,36.7 
1437733995.5,286078801.0,29.8,36.7 
1437734015.6,286078799.6,29.8,36.7 
1437734035.7,286078799.2,29.8,36.7 
1437734055.8,286078800.6,29.8,36.7 
1437734076.0,286078799.9,29.8,36.7 
1437734096.1,286078801.3,29.8,36.7 
1437734115.3,286078798.8,29.8,36.7 
1437734135.4,286078800.6,29.8,36.7 
1437734155.6,286078797.4,29.8,36.7 
1437734175.7,286078802.7,29.8,36.7 
1437734195.8,286078798.1,29.8,37.2 
1437734215.9,286078801.5,29.8,37.2 
1437734236.1,286078796.9,29.8,37.2 
1437734255.3,286078802.5,29.8,37.2 
1437734275.4,286078801.5,29.8,37.2 
1437734295.5,286078798.4,29.8,37.2 
1437734315.7,286078799.0,29.8,37.2 
1437734335.8,286078799.4,29.8,37.2 
1437734355.9,286078802.7,29.8,37.2 
1437734376.0,286078796.8,29.8,37.2 
1437734395.3,286078802.2,29.8,37.2 
1437734415.4,286078799.3,29.8,37.2 
1437734435.5,286078803.0,29.8,37.2 
1437734455.6,286078798.2,29.8,37.2 
1437734475.8,286078799.4,29.8,37.6 
1437734495.9,286078798.8,29.8,37.6 
1437734516.0,286078800.8,29.8,37.6 
1437734535.2,286078800.2,29.8,37.6 
1437734555.3,286078800.2,29.8,37.6 
1437734575.5,286078803.1,29.8,37.6 
1437734595.6,286078796.8,29.8,37.6 
1437734615.7,286078800.0,29.8,37.6 
1437734635.8,286078800.4,29.8,37.6 
1437734656.0,286078800.1,29.8,37.6 
1437734676.1,286078800.9,29.8,37.6 
1437734695.3,286078801.1,29.8,37.6 
1437734715.4,286078796.9,29.8,37.6 
1437734735.6,286078802.7,29.8,37.2 
1437734755.7,286078798.0,29.8,37.2 
1437734775.8,286078799.6,29.8,37.2 
1437734795.9,286078800.5,29.8,37.2 
1437734816.1,286078800.9,29.8,37.2 
1437734835.3,286078797.3,29.8,37.2 
1437734855.4,286078802.0,29.8,37.2 
1437734875.6,286078796.8,29.8,37.2 
1437734895.7,286078804.6,29.8,37.2 
1437734915.8,286078797.2,29.8,37.2 
1437734936.0,286078800.1,29.8,37.6 
1437734955.2,286078802.7,29.8,37.6 
1437734975.3,286078800.8,29.8,38.1 
1437734995.5,286078798.9,29.8,38.1 
1437735015.6,286078798.4,29.8,37.6 
1437735035.7,286078803.0,29.8,37.6 
1437735055.8,286078799.7,29.8,37.6 
1437735076.0,286078801.1,29.8,37.6 
1437735096.1,286078799.8,29.8,37.6 
1437735115.3,286078799.4,29.8,37.6 
1437735135.4,286078797.3,29.8,37.6 
1437735155.6,286078800.4,29.8,37.6 
1437735175.7,286078801.5,29.8,37.2 
1437735195.8,286078798.6,29.8,37.2 
1437735216.0,286078798.4,29.8,37.2 
1437735236.1,286078802.4,29.8,37.2 
1437735255.3,286078797.4,29.8,37.2 
1437735275.5,286078800.2,29.8,37.2 
1437735295.6,286078802.9,29.8,37.2 
1437735315.7,286078796.8,29.8,37.6 
1437735335.9,286078802.3,29.8,37.6 
1437735356.0,286078800.9,29.8,37.6 
1437735376.1,286078801.4,29.8,37.6 
1437735395.3,286078797.5,29.8,37.6 
1437735415.4,286078799.7,29.8,37.6 
1437735435.6,286078802.3,29.8,37.6 
1437735455.7,286078800.2,29.8,37.6 
1437735475.8,286078801.5,29.8,37.2 
1437735495.9,286078797.6,29.8,37.2 
1437735516.1,286078800.9,29.8,37.6 
1437735535.3,286078801.3,29.8,37.6 
1437735555.4,286078800.1,29.8,38.1 
1437735575.5,286078799.3,29.8,38.6 
1437735595.7,286078798.6,29.8,38.1 
